TimeEST,TemperatureF,Dew PointF,Humidity,Sea Level PressureIn,VisibilityMPH,Wind Direction,Wind SpeedMPH,Gust SpeedMPH,PrecipitationIn,Events,Conditions,WindDirDegrees,DateUTC
12:53 AM,-11.9,-22.0,61,30.14,10.0,WSW,17.3,24.2,N/A,,Clear,250,2014-01-07 05:53:00
1:53 AM,-11.9,-20.9,64,30.14,10.0,WSW,15.0,23.0,N/A,,Clear,240,2014-01-07 06:53:00
2:53 AM,-11.0,-20.9,62,30.17,10.0,WSW,13.8,-,N/A,,Clear,240,2014-01-07 07:53:00
3:53 AM,-11.0,-20.9,62,30.17,10.0,WSW,18.4,24.2,N/A,,Clear,240,2014-01-07 08:53:00
4:53 AM,-11.0,-20.0,64,30.17,10.0,WSW,15.0,-,N/A,,Partly Cloudy,250,2014-01-07 09:53:00
5:53 AM,-9.9,-20.0,61,30.18,10.0,WSW,16.1,23.0,N/A,,Scattered Clouds,240,2014-01-07 10:53:00
6:53 AM,-9.9,-20.0,61,30.19,10.0,SW,17.3,24.2,N/A,,Clear,230,2014-01-07 11:53:00
7:53 AM,-11.0,-18.9,68,30.21,9.0,SW,18.4,25.3,N/A,,Clear,230,2014-01-07 12:53:00
8:53 AM,-9.0,-18.0,65,30.23,5.0,SW,19.6,28.8,N/A,,Haze,230,2014-01-07 13:53:00
9:53 AM,-8.0,-17.0,65,30.25,9.0,SW,20.7,28.8,N/A,,Clear,230,2014-01-07 14:53:00
10:53 AM,-5.1,-15.0,62,30.27,8.0,WSW,18.4,28.8,N/A,,Clear,240,2014-01-07 15:53:00
11:53 AM,-2.9,-13.0,62,30.25,10.0,WSW,20.7,29.9,N/A,,Clear,240,2014-01-07 16:53:00
12:53 PM,-0.9,-11.0,62,30.22,9.0,SW,18.4,26.5,N/A,,Clear,230,2014-01-07 17:53:00
1:53 PM,-0.9,-11.9,60,30.23,8.0,WSW,20.7,27.6,N/A,,Clear,240,2014-01-07 18:53:00
2:53 PM,-0.0,-11.0,60,30.24,8.0,SW,17.3,28.8,N/A,,Clear,230,2014-01-07 19:53:00
3:53 PM,-0.0,-11.0,60,30.26,6.0,SW,20.7,28.8,N/A,Snow,Blowing Snow,230,2014-01-07 20:53:00
4:12 PM,-0.4,-11.2,60,30.21,8.0,SW,19.6,31.1,N/A,,Mostly Cloudy,230,2014-01-07 21:12:00
4:53 PM,-0.9,-11.9,60,30.27,10.0,SW,19.6,25.3,N/A,,Mostly Cloudy,230,2014-01-07 21:53:00
5:37 PM,-2.2,-11.2,66,30.21,10.0,SW,17.3,25.3,N/A,,Scattered Clouds,220,2014-01-07 22:37:00
5:53 PM,-2.0,-11.9,63,30.28,10.0,SW,18.4,24.2,N/A,,Partly Cloudy,230,2014-01-07 22:53:00
6:53 PM,-0.9,-11.9,60,30.30,10.0,SW,18.4,-,N/A,,Clear,230,2014-01-07 23:53:00
7:53 PM,-0.9,-11.9,60,30.32,10.0,WSW,12.7,-,N/A,,Clear,240,2014-01-08 00:53:00
8:53 PM,-0.0,-11.0,60,30.35,10.0,WSW,12.7,-,N/A,,Clear,240,2014-01-08 01:53:00
9:28 PM,-0.4,-9.4,66,30.30,10.0,SW,12.7,-,N/A,,Mostly Cloudy,230,2014-01-08 02:28:00
9:53 PM,1.0,-9.0,63,30.36,10.0,SW,12.7,20.7,N/A,,Overcast,230,2014-01-08 02:53:00
10:53 PM,1.9,-8.0,63,30.36,10.0,SW,12.7,-,N/A,,Overcast,230,2014-01-08 03:53:00
11:53 PM,3.0,-7.1,63,30.36,10.0,WSW,12.7,20.7,N/A,,Overcast,250,2014-01-08 04:53:00